FIN461 EFHK-ENBR

Flight info

Callsign FIN461
Flight time 1h 36m
Altitude 34000
Route ADIVO4N ADIVO Y365 POGOK DCT PESUR PESUR3P
Aircraft A321/M-SDE3FGHIRWY/LB1

Departure

Time 2026-05-04 08:12
Airport Helsinki Vantaa Airport (EFHK)

Arrival

Time 2026-05-04 09:49
Airport Bergen Airport, Flesland (ENBR)
Time Latitude Longitude Altitude Speed Heading
2026-05-04 07:42 60.31874 24.96541 163 ft 0 kts 138°
2026-05-04 08:02 60.31905 24.96463 163 ft 2 kts 95°
2026-05-04 08:02 60.31904 24.96433 163 ft 2 kts 71°
2026-05-04 08:02 60.31897 24.96408 163 ft 0 kts 50°
2026-05-04 08:03 60.31893 24.96399 163 ft 1 kts 46°
2026-05-04 08:03 60.31892 24.96397 163 ft 0 kts 46°
2026-05-04 08:05 60.31895 24.96402 163 ft 1 kts 46°
2026-05-04 08:05 60.31909 24.96433 163 ft 4 kts 46°
2026-05-04 08:05 60.31942 24.96505 163 ft 9 kts 48°
2026-05-04 08:05 60.32000 24.96633 163 ft 15 kts 47°
2026-05-04 08:06 60.32076 24.96798 164 ft 15 kts 48°
2026-05-04 08:06 60.32162 24.96834 165 ft 13 kts 332°
2026-05-04 08:06 60.32240 24.96742 166 ft 12 kts 330°
2026-05-04 08:06 60.32320 24.96649 166 ft 13 kts 330°
2026-05-04 08:08 60.32945 24.95919 176 ft 15 kts 330°
2026-05-04 08:08 60.33040 24.95808 175 ft 16 kts 329°
2026-05-04 08:10 60.33118 24.94604 185 ft 11 kts 274°
2026-05-04 08:11 60.33121 24.94453 186 ft 10 kts 266°
2026-05-04 08:11 60.32948 24.94022 185 ft 64 kts 227°
2026-05-04 08:11 60.32472 24.92977 175 ft 136 kts 227°
2026-05-04 08:12 60.31735 24.91363 436 ft 166 kts 227°
2026-05-04 08:12 60.30936 24.89631 1058 ft 173 kts 226°
2026-05-04 08:12 60.30236 24.87734 1866 ft 169 kts 244°
2026-05-04 08:12 60.30052 24.85434 2285 ft 176 kts 281°
2026-05-04 08:13 60.30472 24.82999 2582 ft 190 kts 295°
2026-05-04 08:13 60.31059 24.80509 2883 ft 206 kts 296°
2026-05-04 08:13 60.31618 24.77742 3154 ft 224 kts 284°
2026-05-04 08:13 60.31790 24.74489 3472 ft 243 kts 270°
2026-05-04 08:14 60.31729 24.70919 3866 ft 260 kts 267°
2026-05-04 08:14 60.31624 24.67264 4473 ft 266 kts 267°
2026-05-04 08:14 60.31517 24.63514 5208 ft 268 kts 267°
2026-05-04 08:16 60.30819 24.36379 10035 ft 288 kts 267°
2026-05-04 08:16 60.30711 24.32347 10533 ft 297 kts 266°
2026-05-04 08:16 60.30595 24.28023 10822 ft 313 kts 266°
2026-05-04 08:17 60.30473 24.23538 11100 ft 329 kts 266°
2026-05-04 08:17 60.30344 24.18889 11477 ft 339 kts 266°
2026-05-04 08:17 60.30210 24.14109 12072 ft 343 kts 266°
2026-05-04 08:17 60.30074 24.09327 12688 ft 345 kts 266°
2026-05-04 08:19 60.27257 23.75015 16537 ft 365 kts 258°
2026-05-04 08:19 60.26712 23.70048 17038 ft 368 kts 258°
2026-05-04 08:20 60.26154 23.64978 17535 ft 371 kts 258°
2026-05-04 08:20 60.25599 23.59944 18014 ft 373 kts 258°
2026-05-04 08:20 60.25028 23.54785 18490 ft 376 kts 258°
2026-05-04 08:20 60.24459 23.49666 18949 ft 379 kts 258°
2026-05-04 08:21 60.23883 23.44498 19399 ft 381 kts 258°
2026-05-04 08:21 60.23299 23.39279 19844 ft 384 kts 258°
2026-05-04 08:21 60.22701 23.33955 20288 ft 386 kts 257°
2026-05-04 08:21 60.22103 23.28643 20722 ft 389 kts 257°
2026-05-04 08:22 60.21487 23.23196 21156 ft 391 kts 257°
2026-05-04 08:22 60.20885 23.17885 21570 ft 394 kts 257°
2026-05-04 08:24 60.16450 22.79497 24282 ft 410 kts 257°
2026-05-04 08:24 60.15786 22.73844 24643 ft 413 kts 257°
2026-05-04 08:24 60.15127 22.68263 24991 ft 415 kts 257°
2026-05-04 08:24 60.14456 22.62600 25334 ft 417 kts 257°
2026-05-04 08:25 60.13786 22.56944 25669 ft 419 kts 257°
2026-05-04 08:25 60.13113 22.51288 25995 ft 421 kts 257°
2026-05-04 08:25 60.12424 22.45528 26319 ft 424 kts 257°
2026-05-04 08:25 60.11738 22.39817 26634 ft 426 kts 257°
2026-05-04 08:26 60.11033 22.33981 26944 ft 428 kts 256°
2026-05-04 08:27 60.05984 21.92826 28925 ft 441 kts 256°
2026-05-04 08:28 60.05258 21.87015 29176 ft 443 kts 256°
2026-05-04 08:28 60.04510 21.81052 29472 ft 443 kts 256°
2026-05-04 08:28 60.03758 21.75080 29832 ft 442 kts 256°
2026-05-04 08:28 60.03005 21.69138 30190 ft 441 kts 256°
2026-05-04 08:29 60.02256 21.63243 30527 ft 440 kts 256°
2026-05-04 08:29 60.01493 21.57260 30856 ft 439 kts 256°
2026-05-04 08:29 60.00840 21.51427 31164 ft 439 kts 259°
2026-05-04 08:31 60.01223 21.08986 33039 ft 440 kts 278°
2026-05-04 08:33 60.04213 20.66394 33977 ft 445 kts 278°
2026-05-04 08:33 60.04626 20.60299 33979 ft 445 kts 278°
2026-05-04 08:35 60.07839 20.11257 33980 ft 445 kts 277°
2026-05-04 08:35 60.08614 19.98971 33980 ft 445 kts 277°
2026-05-04 08:37 60.11241 19.55907 33981 ft 445 kts 277°
2026-05-04 08:38 60.11966 19.43589 33981 ft 445 kts 277°
2026-05-04 08:38 60.12676 19.31325 33981 ft 445 kts 276°
2026-05-04 08:40 60.15412 18.82003 33980 ft 445 kts 276°
2026-05-04 08:41 60.16066 18.69704 33981 ft 445 kts 276°
2026-05-04 08:41 60.16710 18.57372 33981 ft 445 kts 276°
2026-05-04 08:42 60.17340 18.45067 33981 ft 445 kts 276°
2026-05-04 08:42 60.17960 18.32752 33981 ft 445 kts 275°
2026-05-04 08:43 60.18569 18.20385 33980 ft 445 kts 275°
2026-05-04 08:43 60.19164 18.08063 33980 ft 445 kts 275°
2026-05-04 08:44 60.19751 17.95687 33980 ft 444 kts 275°
2026-05-04 08:46 60.21980 17.46275 33981 ft 444 kts 275°
2026-05-04 08:46 60.22512 17.33828 33981 ft 444 kts 275°
2026-05-04 08:47 60.23026 17.21509 33980 ft 444 kts 274°
2026-05-04 08:47 60.23531 17.09139 33980 ft 444 kts 275°
2026-05-04 08:48 60.24025 16.96737 33980 ft 444 kts 275°
2026-05-04 08:48 60.24509 16.84316 33980 ft 444 kts 275°
2026-05-04 08:49 60.24981 16.71895 33981 ft 444 kts 275°
2026-05-04 08:50 60.26000 16.43991 33981 ft 444 kts 275°
2026-05-04 08:51 60.26432 16.31630 33981 ft 444 kts 274°
2026-05-04 08:51 60.26855 16.19194 33980 ft 444 kts 274°
2026-05-04 08:52 60.27267 16.06704 33980 ft 444 kts 274°
2026-05-04 08:52 60.27664 15.94345 33980 ft 444 kts 274°
2026-05-04 08:54 60.29142 15.44736 33981 ft 444 kts 274°
2026-05-04 08:55 60.29484 15.32274 33981 ft 444 kts 273°
2026-05-04 08:55 60.29812 15.19892 33980 ft 444 kts 273°
2026-05-04 09:01 60.32564 13.89424 33980 ft 444 kts 272°
2026-05-04 09:01 60.32761 13.76912 33980 ft 444 kts 272°
2026-05-04 09:02 60.32945 13.64474 33980 ft 444 kts 272°
2026-05-04 09:02 60.33116 13.52115 33981 ft 444 kts 272°
2026-05-04 09:03 60.33277 13.39630 33981 ft 444 kts 272°
2026-05-04 09:03 60.33427 13.27164 33980 ft 444 kts 271°
2026-05-04 09:04 60.33564 13.14729 33980 ft 444 kts 271°
2026-05-04 09:04 60.33690 13.02241 33980 ft 444 kts 271°
2026-05-04 09:05 60.33805 12.89664 33980 ft 444 kts 271°
2026-05-04 09:05 60.33908 12.77163 33980 ft 444 kts 271°
2026-05-04 09:06 60.33999 12.64691 33980 ft 444 kts 271°
2026-05-04 09:08 60.34246 12.14729 33980 ft 444 kts 270°
2026-05-04 09:08 60.34279 12.02214 33980 ft 444 kts 270°
2026-05-04 09:09 60.34300 11.89728 33980 ft 444 kts 270°
2026-05-04 09:09 60.34309 11.77342 33980 ft 444 kts 270°
2026-05-04 09:10 60.34306 11.64864 33980 ft 444 kts 270°
2026-05-04 09:10 60.34292 11.52389 33981 ft 444 kts 270°
2026-05-04 09:11 60.34266 11.39926 33981 ft 444 kts 270°
2026-05-04 09:11 60.34229 11.27538 33980 ft 444 kts 269°
2026-05-04 09:12 60.34180 11.15066 33980 ft 444 kts 269°
2026-05-04 09:14 60.33868 10.65290 33980 ft 444 kts 269°
2026-05-04 09:14 60.33761 10.52848 33981 ft 443 kts 269°
2026-05-04 09:15 60.33642 10.40371 33981 ft 443 kts 269°
2026-05-04 09:15 60.33513 10.28024 33980 ft 443 kts 268°
2026-05-04 09:17 60.32786 9.72222 33980 ft 443 kts 268°
2026-05-04 09:18 60.32591 9.59733 33981 ft 443 kts 268°
2026-05-04 09:18 60.32382 9.47131 33981 ft 443 kts 268°
2026-05-04 09:19 60.32164 9.34623 33981 ft 443 kts 268°
2026-05-04 09:19 60.31932 9.22045 33980 ft 443 kts 268°
2026-05-04 09:20 60.31689 9.09505 33980 ft 443 kts 268°
2026-05-04 09:20 60.31436 8.97053 33980 ft 443 kts 268°
2026-05-04 09:21 60.31172 8.84617 33710 ft 445 kts 268°
2026-05-04 09:21 60.31037 8.78451 33118 ft 445 kts 268°
2026-05-04 09:21 60.30897 8.72224 32474 ft 445 kts 268°
2026-05-04 09:22 60.30755 8.66009 31814 ft 445 kts 268°
2026-05-04 09:22 60.30609 8.59765 31132 ft 446 kts 268°
2026-05-04 09:22 60.30460 8.53503 30438 ft 446 kts 268°
2026-05-04 09:22 60.30309 8.47303 29744 ft 446 kts 268°
2026-05-04 09:23 60.30154 8.41015 29025 ft 446 kts 268°
2026-05-04 09:23 60.29996 8.34760 28434 ft 443 kts 266°
2026-05-04 09:23 60.29839 8.28665 27977 ft 437 kts 266°
2026-05-04 09:23 60.29681 8.22597 27507 ft 431 kts 266°
2026-05-04 09:25 60.28547 7.82034 24267 ft 399 kts 266°
2026-05-04 09:25 60.28383 7.76508 23817 ft 395 kts 266°
2026-05-04 09:26 60.28216 7.70979 23365 ft 392 kts 266°
2026-05-04 09:26 60.28051 7.65561 22920 ft 389 kts 266°
2026-05-04 09:26 60.27885 7.60198 22479 ft 386 kts 266°
2026-05-04 09:26 60.27716 7.54811 22032 ft 383 kts 266°
2026-05-04 09:27 60.27546 7.49456 21587 ft 380 kts 266°
2026-05-04 09:27 60.27377 7.44201 21148 ft 377 kts 266°
2026-05-04 09:27 60.27204 7.38891 20704 ft 375 kts 266°
2026-05-04 09:27 60.27034 7.33719 20268 ft 372 kts 266°
2026-05-04 09:28 60.26860 7.28479 19825 ft 370 kts 266°
2026-05-04 09:28 60.26686 7.23328 19388 ft 368 kts 266°
2026-05-04 09:28 60.26512 7.18235 18954 ft 366 kts 266°
2026-05-04 09:28 60.26336 7.13116 18518 ft 364 kts 266°
2026-05-04 09:29 60.26160 7.08080 18086 ft 362 kts 266°
2026-05-04 09:29 60.25982 7.03007 17650 ft 360 kts 266°
2026-05-04 09:29 60.25803 6.98009 17219 ft 358 kts 266°
2026-05-04 09:29 60.25622 6.92987 16784 ft 356 kts 266°
2026-05-04 09:30 60.25442 6.88068 16357 ft 355 kts 266°
2026-05-04 09:30 60.25261 6.83137 15929 ft 353 kts 266°
2026-05-04 09:30 60.25076 6.78181 15496 ft 351 kts 266°
2026-05-04 09:30 60.24894 6.73334 15072 ft 350 kts 266°
2026-05-04 09:31 60.24707 6.68438 14643 ft 348 kts 266°
2026-05-04 09:31 60.24522 6.63640 14221 ft 347 kts 266°
2026-05-04 09:31 60.24335 6.58787 13793 ft 345 kts 266°
2026-05-04 09:31 60.24182 6.54031 13376 ft 343 kts 267°
2026-05-04 09:32 60.24051 6.49230 12952 ft 340 kts 267°
2026-05-04 09:32 60.23922 6.44439 12527 ft 338 kts 267°
2026-05-04 09:34 60.22985 6.12358 10148 ft 301 kts 266°
2026-05-04 09:34 60.22859 6.08277 10072 ft 288 kts 266°
2026-05-04 09:34 60.22735 6.04305 9981 ft 277 kts 266°
2026-05-04 09:34 60.22611 6.00403 9629 ft 277 kts 266°
2026-05-04 09:35 60.22487 5.96526 9298 ft 275 kts 266°
2026-05-04 09:35 60.22365 5.92717 8979 ft 273 kts 266°
2026-05-04 09:35 60.22243 5.88941 8665 ft 271 kts 266°
2026-05-04 09:35 60.21947 5.85196 8341 ft 269 kts 253°
2026-05-04 09:37 60.13500 5.73648 7993 ft 248 kts 161°
2026-05-04 09:37 60.11832 5.74422 7990 ft 248 kts 174°
2026-05-04 09:38 60.10122 5.74583 7991 ft 248 kts 180°
2026-05-04 09:38 60.08375 5.74587 7991 ft 248 kts 180°
2026-05-04 09:38 60.06667 5.74310 7990 ft 248 kts 191°
2026-05-04 09:38 60.04993 5.73358 7992 ft 248 kts 199°
2026-05-04 09:39 60.03382 5.72180 7991 ft 248 kts 201°
2026-05-04 09:39 60.01792 5.70888 7989 ft 248 kts 207°
2026-05-04 09:39 60.00547 5.69353 7989 ft 248 kts 217°
2026-05-04 09:39 59.99228 5.67225 7989 ft 248 kts 220°
2026-05-04 09:40 59.97917 5.64995 7792 ft 250 kts 222°
2026-05-04 09:40 59.96738 5.62482 7480 ft 248 kts 234°
2026-05-04 09:40 59.95835 5.59551 7188 ft 246 kts 241°
2026-05-04 09:40 59.95092 5.56504 6871 ft 244 kts 256°
2026-05-04 09:41 59.95118 5.53183 6547 ft 242 kts 291°
2026-05-04 09:42 60.05421 5.44375 4618 ft 236 kts 343°
2026-05-04 09:43 60.06994 5.43394 4347 ft 235 kts 343°
2026-05-04 09:43 60.08542 5.42374 4087 ft 233 kts 336°
2026-05-04 09:43 60.09764 5.40299 3912 ft 233 kts 298°
2026-05-04 09:43 60.10239 5.37226 3786 ft 233 kts 280°
2026-05-04 09:44 60.10463 5.34023 3630 ft 232 kts 277°
2026-05-04 09:44 60.10675 5.30852 3437 ft 220 kts 278°
2026-05-04 09:44 60.11018 5.27914 2952 ft 222 kts 299°
2026-05-04 09:46 60.19737 5.25049 1862 ft 146 kts 350°
2026-05-04 09:46 60.20746 5.24702 1666 ft 145 kts 350°
2026-05-04 09:46 60.21736 5.24366 1474 ft 145 kts 350°
2026-05-04 09:47 60.22727 5.24033 1282 ft 145 kts 350°
2026-05-04 09:47 60.23713 5.23702 1091 ft 144 kts 350°
2026-05-04 09:49 60.29640 5.21716 174 ft 16 kts 349°
2026-05-04 09:49 60.29713 5.21800 174 ft 5 kts 77°
2026-05-04 09:49 60.29713 5.21803 174 ft 0 kts 78°
2026-05-04 09:52 60.29714 5.21813 174 ft 1 kts 78°
2026-05-04 09:52 60.29718 5.21854 174 ft 4 kts 78°
2026-05-04 09:52 60.29725 5.21927 174 ft 6 kts 81°
2026-05-04 09:53 60.29703 5.22004 174 ft 7 kts 152°
2026-05-04 09:53 60.29641 5.22032 174 ft 10 kts 170°
2026-05-04 09:53 60.29566 5.22057 174 ft 11 kts 170°
2026-05-04 09:53 60.29478 5.22086 174 ft 13 kts 170°
2026-05-04 09:54 60.29417 5.22126 174 ft 8 kts 128°
2026-05-04 09:54 60.29386 5.22233 174 ft 10 kts 151°
2026-05-04 09:54 60.29336 5.22259 174 ft 5 kts 170°
2026-05-04 09:54 60.29290 5.22275 174 ft 7 kts 170°
2026-05-04 09:55 60.29228 5.22296 174 ft 10 kts 171°
2026-05-04 09:55 60.29153 5.22320 174 ft 12 kts 170°
2026-05-04 09:55 60.29077 5.22345 174 ft 6 kts 170°
2026-05-04 09:55 60.29040 5.22388 174 ft 0 kts 111°
2026-05-04 09:56 60.29037 5.22406 174 ft 2 kts 108°
2026-05-04 09:56 60.29025 5.22451 174 ft 4 kts 130°
2026-05-04 09:56 60.29000 5.22510 174 ft 6 kts 131°
2026-05-04 09:56 60.28981 5.22553 174 ft 2 kts 131°
2026-05-04 09:57 60.28973 5.22570 174 ft 0 kts 131°
2026-05-04 09:57 60.28970 5.22578 174 ft 1 kts 131°
2026-05-04 09:57 60.28968 5.22581 174 ft 0 kts 131°